Regional Weather Roundup
Issued by NWS

Home | Current Version | Previous Version | Text Only | Print | Product List | Glossary On
Versions: 1 2 3 4 5 6 7 8 9 10 11 12 13 14 15 16 17 18 19 20 21 22 23 24 25 26 27 28 29 30 31 32 33 34 35 36 37 38 39 40 41 42 43 44 45 46 47 48 49 50
000
ASUS44 KOUN 111010
RWROK

WEATHER ROUNDUP FOR OKLAHOMA
NATIONAL WEATHER SERVICE NORMAN OK
500 AM CDT FRI JUL 11 2014

NOTE: "FAIR" INDICATES FEW OR NO CLOUDS BELOW 12,000 FEET WITH NO
      SIGNIFICANT WEATHER AND/OR OBSTRUCTIONS TO VISIBILITY.

OKZ001>007-009>012-014-015-017-111100-
NORTHWEST OKLAHOMA AND THE PANHANDLE

CITY           SKY/WX    TMP DP  RH WIND       PRES   REMARKS
GAGE           CLEAR     72  53  51 S14       30.00S
ENID/VANCE AFB CLEAR     72  72 100 SE10      29.98R
ENID/WOODRING  CLEAR    N/A N/A N/A S7        29.98R
$$

OKZ016-021>023-033>039-044-045-111100-
SOUTHWEST OKLAHOMA

CITY           SKY/WX    TMP DP  RH WIND       PRES   REMARKS
LAWTON/REGL    CLEAR     75  63  66 S6        30.02S
LAWTON/FT SILL CLEAR     76  64  66 S7        30.02R
FREDERICK      CLEAR     76  62  62 S8        29.99S
CLINTON        CLEAR     76  59  55 S14       30.04R
HOBART         CLEAR     76  62  62 S15       30.02S
ALTUS AFB      CLEAR     74  62  66 S6        30.02R
$$

OKZ018>020-024>031-111100-
CENTRAL OKLAHOMA

CITY           SKY/WX    TMP DP  RH WIND       PRES   REMARKS
OKLAHOMA CITY  PTCLDY    70  64  81 S6        30.02S
OKC/WILEY POST CLEAR     76  64  66 S15       30.01S
OKC/TINKER AFB CLEAR     73  65  77 S13       30.03R
STILLWATER     CLEAR     70  67  90 SE7       30.00S
GUTHRIE        CLEAR     79  63  57 S10       30.00S
$$

OKZ008-013-054>072-111100-
NORTHEAST OKLAHOMA

CITY           SKY/WX    TMP DP  RH WIND       PRES   REMARKS
TULSA          PTCLDY    69  68  96 SE6       30.02R
TULSA/JONES    CLEAR     71  69  93 S5        30.02S
PONCA CITY     CLEAR     72  67  84 S10       29.99S
BARTLESVILLE   CLOUDY    68  64  87 SE3       30.03S
MUSKOGEE       MOCLDY    71  69  93 S9        30.05S
$$

OKZ032-040>043-046>053-073>077-111100-
SOUTH CENTRAL/SOUTHEAST OKLAHOMA

CITY           SKY/WX    TMP DP  RH WIND       PRES   REMARKS
ARDMORE/DWNTWN PTCLDY    73  64  73 S5        30.04S
MCALESTER      PTCLDY    75  71  87 SE3       30.06R
$$




USA.gov is the U.S. government's official web portal to all federal, state and local government web resources and services.